SCP
0 0 1 1 1 1 1 1 1 1 1 1 1 1 1 1 1 1 1 1 2 2 1 1 1 1 1 1 1 1 1 1 1 1 1 1 1 1 1 1 1 1 1
0 0 1 1 1 1 1 1 1 1 1 1 1 1 1 1 1 1 1 1 2 2 2 1 1 1 1 1 1 1 1 1 1 1 1 1 1 1 1 1 1 1 1
0 0 1 1 1 1 1 1 1 1 1 1 1 1 1 1 1 1 1 1 1 2 1 1 1 1 1 1 1 1 1 1 1 1 1 1 1 1 1 1 1 1 1
0 0 0 1 1 1 1 1 1 1 1 1 1 1 1 1 1 1 1 1 1 1 1 1 1 1 1 1 1 1 1 2 1 1 1 1 1 1 1 1 1 1 1
0 0 0 0 1 1 1 1 1 1 1 1 1 1 1 1 1 1 1 1 1 1 1 1 1 1 1 1 1 1 2 2 1 1 1 1 1 1 1 1 1 1 1
1 1 1 1 1 1 1 1 1 1 1 1 1 1 1 1 0 0 1 1 1 1 1 1 1 1 1 1 1 2 2 2 2 1 1 1 1 1 1 1 1 1 1
1 1 1 1 1 1 1 1 1 1 1 2 2 1 1 1 0 0 0 1 1 1 1 1 1 1 1 1 1 2 2 2 2 2 1 1 1 1 1 1 1 1 1
1 1 1 1 1 1 1 1 1 1 1 2 2 2 1 1 0 0 0 1 1 1 1 1 1 1 1 1 1 1 2 2 2 2 2 1 1 1 1 1 1 1 1
1 1 1 1 1 1 1 1 1 1 1 1 1 1 1 1 1 0 0 1 1 1 1 1 1 1 1 1 1 1 1 2 2 2 2 1 1 1 1 1 1 1 1
1 1 0 0 0 1 1 1 1 1 1 1 1 1 1 1 1 1 0 0 1 1 1 1 1 1 1 1 1 1 1 1 2 2 2 1 1 1 1 1 1 1 1
1 1 0 0 0 1 1 1 1 1 1 1 1 1 1 1 1 1 1 1 1 1 1 1 1 1 1 1 1 1 1 1 2 2 1 1 1 1 1 1 1 1 1
1 1 0 0 0 1 1 1 1 1 1 1 1 1 1 1 1 1 1 1 1 1 1 1 1 1 1 1 1 1 1 1 1 1 1 1 1 1 1 1 1 2 2
1 1 1 1 1 1 1 1 1 1 1 1 1 1 1 1 1 1 1 1 1 1 1 1 1 1 2 2 1 1 1 1 1 1 1 1 1 1 1 1 1 1 1
1 1 1 1 1 1 1 1 1 1 1 1 1 1 1 1 1 1 1 1 1 1 1 1 1 2 2 1 1 1 1 1 0 0 0 0 0 0 0 0 1 1 1
1 1 1 1 1 1 1 1 1 1 1 1 1 1 1 1 1 1 1 1 1 1 1 1 2 2 1 1 1 1 1 1 0 0 0 0 0 0 0 0 0 0 0
1 1 1 1 1 1 1 1 1 1 1 1 1 1 1 1 1 1 2 2 2 2 2 2 2 2 1 1 1 1 1 1 1 0 0 0 0 0 0 0 0 0 0
1 1 1 1 1 1 1 1 1 1 1 1 1 1 1 1 1 1 2 2 2 3 2 2 2 2 1 1 1 1 1 1 1 0 0 0 0 0 0 0 0 0 0
1 1 1 1 1 1 1 1 1 1 1 1 1 1 1 1 1 1 1 2 2 2 2 2 2 2 1 1 2 1 1 1 1 1 0 0 0 0 0 0 0 0 0
1 1 1 2 2 2 1 1 1 1 1 1 2 2 2 2 1 1 1 2 2 2 2 2 2 2 1 1 2 2 1 1 1 1 1 0 0 0 0 0 0 0 0
1 1 1 2 2 2 2 1 1 1 2 3 3 2 2 2 1 1 1 1 2 2 2 2 2 1 1 2 2 2 1 1 1 1 1 1 0 0 0 0 0 0 0
1 1 1 1 1 2 1 1 1 2 3 4 3 2 1 1 1 1 1 1 2 2 2 2 2 2 2 2 2 2 1 1 1 1 1 1 1 1 1 1 0 0 0
1 1 1 1 1 1 1 1 2 2 3 4 3 2 1 1 1 1 1 1 2 2 2 2 2 2 2 2 2 2 2 2 1 1 1 1 1 1 1 1 0 0 0
1 1 1 1 1 1 1 1 2 2 3 2 2 2 2 2 1 1 1 1 2 2 2 2 2 2 2 2 2 2 2 2 2 1 1 1 1 1 1 1 0 0 0
1 1 1 1 1 1 1 1 1 2 3 2 2 2 2 2 2 1 2 2 2 2 2 2 2 1 1 1 2 2 2 2 1 1 1 1 1 1 1 1 0 0 0
1 1 1 1 1 1 1 1 1 2 3 3 2 2 1 2 1 1 2 2 2 2 2 2 2 1 1 1 1 1 1 1 1 1 1 1 1 1 1 1 0 0 0
1 1 1 2 2 2 1 1 1 2 3 3 3 2 1 1 1 1 1 1 1 1 2 2 2 1 1 1 1 1 1 1 1 1 1 1 1 1 1 1 0 0 0
Wind_Speed
0 0 0 0 0 0 1 0 0 0 0 1 1 1 1 1 1 1 1 2 2 3 4 5 5 6 6 7 7 7 7 7 7 7 8 8 8 8 9 8 8 8 9
1 0 0 0 1 1 1 1 1 1 1 1 1 1 1 1 1 1 1 1 2 2 3 3 4 5 6 6 7 7 8 8 7 7 7 7 7 7 8 8 8 8 8
1 1 0 1 1 1 1 1 1 0 0 0 0 0 0 1 1 1 1 1 1 2 3 3 4 4 5 6 6 7 7 7 7 7 7 6 6 7 8 8 9 8 8
1 1 0 1 1 0 1 1 1 1 0 0 0 0 0 1 1 1 1 1 1 1 2 3 4 3 4 5 5 6 6 7 6 6 6 6 6 7 7 8 9 9 9
1 1 1 1 0 0 0 1 1 1 1 0 0 0 0 1 1 1 1 1 1 1 1 2 3 3 4 4 5 5 6 6 6 6 6 6 6 7 7 8 8 8 8
1 1 1 0 0 1 0 1 1 1 1 1 0 0 1 1 1 1 2 1 1 2 2 2 1 2 3 3 4 4 4 5 5 5 6 6 6 6 7 7 8 8 8
1 1 0 0 0 1 1 1 1 1 1 1 1 1 2 1 1 1 1 1 2 2 2 2 1 1 1 3 3 4 5 5 4 4 5 5 5 5 6 7 7 7 7
1 1 1 1 1 1 1 1 1 1 0 1 2 1 1 2 2 1 1 1 2 1 2 2 2 2 2 1 2 3 4 4 4 4 4 3 4 4 4 4 5 6 6
1 1 1 1 1 1 1 1 1 2 1 0 1 2 2 2 2 2 1 1 1 1 2 2 2 2 3 2 2 3 4 4 4 4 3 3 4 4 4 4 4 5 6
1 1 1 1 1 1 1 1 1 2 2 1 0 0 1 2 1 1 2 2 2 1 2 2 2 2 2 2 2 3 4 3 3 3 3 3 3 4 4 4 4 4 4
0 1 1 1 1 1 1 1 1 1 2 2 2 1 1 1 1 1 2 2 2 1 2 2 2 2 2 2 2 3 3 3 3 3 3 3 3 3 3 4 5 5 5
0 1 1 1 1 1 1 1 1 1 2 2 2 2 2 2 2 2 2 2 2 2 2 1 2 2 2 2 3 3 3 3 3 3 3 3 3 3 3 4 5 5 4
1 2 1 1 1 1 1 1 1 1 1 2 3 2 2 2 2 2 2 2 2 2 2 1 2 2 2 2 2 3 3 3 3 3 3 3 3 3 3 3 4 4 4
2 2 2 2 1 1 1 1 1 2 1 2 3 3 2 2 2 2 2 2 1 2 2 3 1 2 2 2 2 3 3 3 3 3 3 3 3 3 3 3 3 3 3
1 1 1 1 1 1 1 1 1 2 2 2 2 3 2 2 2 2 2 2 3 2 3 3 2 2 2 2 2 2 2 2 3 3 3 3 4 4 4 3 3 3 3
1 1 1 1 0 0 1 1 1 1 1 1 1 2 2 2 2 2 2 2 2 3 3 2 3 2 2 2 1 2 2 2 3 3 3 3 3 3 4 4 3 3 3
2 2 2 1 1 1 1 1 1 1 1 1 1 2 3 2 2 2 2 2 2 3 3 3 2 2 2 2 1 1 1 1 2 2 3 2 2 3 4 4 4 3 3
3 3 2 2 1 1 1 1 1 1 1 2 2 2 3 2 2 2 2 3 3 3 3 3 2 1 2 2 1 1 1 1 2 2 3 3 2 2 2 3 4 3 3
3 2 2 2 2 1 1 2 2 2 2 2 2 2 3 2 3 2 2 3 3 3 2 2 2 1 1 1 1 1 1 1 2 2 3 3 2 2 2 2 3 3 3
4 3 3 3 2 2 2 2 2 2 2 2 2 2 3 3 3 3 3 3 2 2 2 2 2 1 1 1 1 1 1 1 2 2 2 2 2 2 3 3 3 3 3
4 3 2 2 2 2 2 2 2 2 2 2 2 3 3 3 3 3 3 2 2 2 2 2 2 1 2 1 2 2 2 2 2 1 2 1 1 1 2 3 3 3 3
3 3 2 2 3 2 2 3 3 3 2 2 3 3 3 3 3 3 3 3 3 3 3 3 2 3 4 3 2 2 2 1 2 1 1 2 1 2 2 2 2 3 3
3 3 3 3 3 3 3 3 3 2 2 2 3 2 2 2 2 2 3 3 3 3 5 4 4 5 4 4 4 4 3 3 3 1 1 2 1 2 2 2 3 3 3
3 3 3 3 3 3 2 2 1 1 2 2 3 2 2 2 2 2 2 2 3 3 4 4 4 5 5 4 5 4 4 2 1 1 2 2 1 2 2 2 2 3 3
2 2 2 2 2 3 3 2 2 1 1 2 2 2 2 2 3 2 1 2 3 3 3 4 4 4 4 4 4 3 2 2 2 2 2 2 1 1 2 2 1 2 3
3 2 2 2 3 3 3 2 2 1 1 2 2 2 2 2 3 2 1 2 3 4 3 3 2 2 2 3 5 5 4 3 2 2 2 2 1 1 1 1 1 1 1
Wind_Direction
205 89 36 40 352 117 149 147 164 167 236 272 237 193 185 185 204 217 231 215 213 215 216 209 208 208 213 215 216 216 215 215 216 216 216 216 217 218 218 219 221 224 222
183 141 343 310 275 220 188 184 202 198 222 227 255 214 188 172 185 185 218 234 213 206 205 210 218 221 218 216 217 215 215 216 215 215 218 219 217 218 221 222 224 226 223
181 172 207 269 267 223 184 175 181 154 187 185 231 236 201 195 198 200 209 212 221 214 213 222 227 224 220 218 217 215 214 213 214 215 216 216 218 221 223 225 225 223 222
179 161 201 259 259 175 159 160 151 136 88 96 244 265 254 241 223 212 211 222 230 240 236 231 232 232 226 225 223 220 216 213 213 215 217 218 219 221 222 225 226 223 223
164 158 213 264 219 142 159 187 128 152 159 203 231 201 229 241 247 222 212 222 228 240 244 239 237 229 233 234 229 227 223 216 215 217 221 222 222 223 225 224 224 224 223
171 154 185 259 166 123 82 174 161 139 171 191 210 10 317 275 289 258 245 247 238 238 239 246 247 244 244 246 246 242 237 228 222 223 228 231 231 229 226 222 223 226 226
161 160 188 194 149 154 183 175 147 108 51 87 81 23 350 345 269 264 262 259 257 245 225 225 228 241 255 257 258 259 254 243 231 226 229 233 234 232 227 223 223 225 227
186 182 174 187 174 149 107 122 135 131 115 117 124 96 360 338 333 322 284 255 265 246 230 228 224 230 239 249 261 258 261 255 247 241 235 232 235 232 231 229 226 225 227
187 175 164 150 146 152 177 190 171 163 173 169 123 139 150 238 304 325 309 295 275 242 244 243 234 235 236 245 257 265 262 256 254 253 251 246 243 233 222 223 225 225 226
170 171 157 147 145 153 179 215 176 174 153 170 187 145 154 161 167 303 313 308 293 253 254 251 252 243 238 247 251 258 262 258 256 255 257 244 241 239 228 222 228 234 236
172 198 169 158 160 166 194 199 148 165 162 168 173 163 145 118 156 180 275 303 311 279 260 253 248 251 240 240 246 253 250 245 243 248 255 253 252 251 240 230 232 234 237
273 249 193 184 193 187 204 208 191 182 183 170 171 167 166 171 193 186 223 257 277 287 281 267 255 256 246 240 247 249 240 229 228 234 241 248 253 250 244 241 234 233 235
236 248 223 207 206 214 213 190 186 213 203 188 190 198 200 208 188 181 197 230 256 284 288 270 252 255 252 237 248 252 241 233 228 227 234 248 256 247 247 255 245 242 244
222 228 211 205 209 213 223 190 196 223 210 214 211 202 209 225 204 191 188 188 238 277 274 273 270 249 257 241 250 235 235 226 221 226 237 248 253 247 243 248 246 246 243
203 189 192 194 211 207 218 205 223 234 216 223 230 218 220 229 209 209 197 190 191 239 263 261 261 256 247 239 247 230 235 241 236 237 247 248 247 242 234 233 231 225 225
185 169 194 191 202 197 205 202 240 247 224 249 240 229 235 237 221 209 205 204 200 208 246 248 245 263 259 264 248 243 252 257 256 253 249 247 248 234 232 230 233 229 225
177 183 190 188 197 210 242 219 242 234 229 268 277 250 254 243 231 227 213 208 211 204 235 262 251 262 238 261 277 257 255 255 262 256 254 251 253 240 233 227 225 228 225
188 193 189 181 199 221 235 226 247 252 235 255 268 268 274 264 252 248 228 223 220 213 218 250 263 267 253 255 259 256 274 269 261 261 253 253 245 236 235 227 220 221 219
192 193 184 189 201 212 230 238 231 238 238 249 256 259 268 259 260 256 245 241 232 221 214 229 258 257 261 264 269 284 289 296 281 271 253 250 254 249 248 241 223 217 219
195 200 200 202 204 205 217 231 238 244 251 262 261 258 262 252 250 252 249 243 231 217 205 217 243 256 255 254 228 261 287 292 283 298 304 286 271 254 252 246 233 220 219
196 196 192 198 205 205 219 227 240 246 252 268 276 273 272 268 257 249 252 241 226 217 212 216 235 242 243 228 230 225 248 271 269 274 285 290 283 273 273 261 242 232 224
182 176 188 202 213 223 239 237 232 243 245 251 270 283 286 282 289 277 266 243 218 212 218 221 232 234 238 231 225 219 218 242 262 242 247 274 260 264 266 258 246 225 221
176 189 199 203 223 234 231 239 235 225 237 248 257 271 293 303 295 291 285 271 252 234 221 217 226 240 237 223 210 216 215 221 238 249 237 264 265 263 269 263 240 232 227
189 201 207 209 222 251 244 241 233 218 239 252 252 249 258 283 287 282 278 286 274 256 240 232 231 239 241 225 211 214 216 227 262 242 210 242 253 262 278 269 242 232 228
198 209 210 211 221 255 248 217 169 197 237 266 268 266 263 273 283 285 266 284 296 293 275 249 240 252 248 228 199 176 180 199 245 238 201 222 246 272 275 269 264 236 231
201 203 218 227 225 244 247 217 179 185 225 266 278 273 262 281 293 273 251 261 282 293 301 302 288 284 257 223 197 197 193 197 219 236 195 203 209 223 275 272 274 273 250